This site uses a module created by best online poker sites.

BSB police report ending February 21, 2019

"02/20/2019","00:49","219CR0004148","ALL OTHER","ALL OTHER","1000 GRIZZLY TRAIL","",""
"02/20/2019","01:23","219CR0004149","BUSINESS CHECK","BUSINESS CHECK","301 E MERCURY ST CINZ","",""
"02/20/2019","01:40","219CR0004150","ASSAULT","PFMA - MINOR INJ/PHYSICAL CONT","1831 PHILLIPS","ARREST(s) MADE",""
"02/20/2019","04:24","219CR0004151","SUSPICIOUS ACTIVITY","SUSPICIOUS ACTIVITY","CENTENNIAL AND FRONT","",""
"02/20/2019","04:50","219CR0004152","ALARM - BURGLARY","ALARM - BURGLARY","************","",""
"02/20/2019","07:14","219CR0004153","MEDICAL - EMERGENCY","MEDICAL - EMERGENCY","100 GARDENS WAY #148","",""
"02/20/2019","07:38","219CR0004154","CIVIL PAPER SERVICE","CIVIL PAPER SERVICE","3136 FLORAL BLVD","",""
"02/20/2019","07:53","219CR0004155","ACCIDENT","ACCIDENT","FLORENCE AND MAJORS","",""
"02/20/2019","07:53","219CR0004156","SUSPICIOUS ACTIVITY","SUSPICIOUS ACTIVITY","1800 BLK WILSON","",""
"02/20/2019","07:57","219CR0004158","TRAFFIC","TRAFFIC","848 W PARK","",""
"02/20/2019","08:01","219CR0004157","T/S","T/S","WARREN AND HILL","",""
"02/20/2019","08:13","219CR0004159","MEDICAL - EMERGENCY","MEDICAL - EMERGENCY","10211/2 E FRONT ST","",""
"02/20/2019","08:26","219CR0004160","ACCIDENT- INJURY(MHP)","ACCIDENT- INJURY(MHP)","MM 214 I90 E BND","",""
"02/20/2019","09:21","219CR0004161","FIRE- GAS ODOR","FIRE- GAS ODOR","1410 HOLMES","",""
"02/20/2019","09:42","219CR0004162","ABANDONED VEHICLE (MHP)","ABANDONED VEHICLE (MHP)","I 15 MM 123 N BND","",""
"02/20/2019","09:51","219CR0004163","T/S","T/S @ 1300 BLK HARRISON AVE","1300 BLK HARRISON AVE","",""
"02/20/2019","09:55","219CR0004164","THEFT","THEFT, ALL OTHERS","3400 HILL","",""
"02/20/2019","09:55","219CR0004165","THEFT","THEFT","300 EAGLE NEST","",""
"02/20/2019","10:35","219CR0004166","MEDICAL - EMERGENCY","MEDICAL - EMERGENCY","2915 ELIZABETH WARREN AVE","",""
"02/20/2019","10:46","219CR0004167","THEFT","THEFT","531 S CRYSTAL","",""
"02/20/2019","10:52","219CR0004168","JUVENILE MISC","JUVENILE MISC","************","",""
"02/20/2019","10:54","219CR0004169","CIVIL PAPER SERVICE","CIVIL PAPER SERVICE","3605 OREGON","",""
"02/20/2019","11:01","219CR0004170","CITIZEN AID","CITIZEN AID","2084 HARRISON AVE","",""
"02/20/2019","11:09","219CR0004171","JUVENILE MISC","JUVENILE MISC","************","",""
"02/20/2019","11:13","219CR0004172","ALL OTHER","ALL OTHER","2000 BLK FLORIDA AVE","",""
"02/20/2019","11:28","219CR0004174","CIVIL PAPER SERVICE","CIVIL PAPER SERVICE","934 HORNET","",""
"02/20/2019","11:51","219CR0004175","HARASSMENT","HARASSMENT","1825 GAYLORD","",""
"02/20/2019","11:56","219CR0004176","VANDALISM/CRIMINAL MISCHIEF","VANDALISM/CRIMINAL MISCHIEF","2100 CORNELL QUALITY INN","",""
"02/20/2019","12:03","219CR0004177","ACCIDENT","FAIL TO YIELD THRU TRAFFIC","LONGFELLOW AND PAXSON","",""
"02/20/2019","12:14","219CR0004178","SEXUAL ASSAULT","SEXUAL ASSAULT","************","",""
"02/20/2019","12:18","219CR0004179","MEDICAL - EMERGENCY","MEDICAL - EMERGENCY","8 W PARK #601","",""
"02/20/2019","12:36","219CR0004180","STOLEN VEHICLE","MOTOR VEHICLE THEFT","BUTTE AREA","",""
"02/20/2019","12:53","219CR0004181","ALARM - BURGLARY","ALARM - BURGLARY","************","",""
"02/20/2019","12:57","219CR0004182","DETENTION BUSINESS","DETENTION BUSINESS","************","",""
"02/20/2019","13:37","219CR0004183","THEFT","THEFT, SHOPLIFT","3901 HARRISON WALMART","ARREST(s) MADE",""
"02/20/2019","13:50","219CR0004184","HARASSMENT","HARASSMENT","BUTTE AREA","",""
"02/20/2019","14:13","219CR0004185","WELFARE CHECK","WELFARE CHECK","1855 DEWEY BLVD","",""
"02/20/2019","14:35","219CR0004186","T/S","T/S","1100 BLK W PARK","",""
"02/20/2019","14:50","219CR0004187","MEDICAL - EMERGENCY","MEDICAL - EMERGENCY","100 GARDENS WAY #151","",""
"02/20/2019","14:57","219CR0004188","THEFT","THEFT","332 GRANITE MOUNTAIN RD","",""
"02/20/2019","15:08","219CR0004189","SNOW REMOVAL COMPLAINT","SNOW REMOVAL COMPLAINT","1824 GRAND AVE","",""
"02/20/2019","15:13","219CR0004190","MEDICAL - EMERGENCY","MEDICAL - EMERGENCY","100 GARDENS WAY #148","",""
"02/20/2019","15:39","219CR0004191","ALL OTHER","ALL OTHER","1000 MISSOULA","",""
"02/20/2019","16:12","219CR0004192","ALL OTHER","ALL OTHER","934 S UTAH","",""
"02/20/2019","16:18","219CR0004193","WANTED PERSON","WANTED PERSON","************","",""
"02/20/2019","16:20","219CR0004194","T/S","T/S","MAIN ST AND GRANITE ST","",""
"02/20/2019","16:32","219CR0004195","MEDICAL - EMERGENCY","MEDICAL - EMERGENCY","1943 PHILLIPS","",""
"02/20/2019","16:52","219CR0004196","CITIZEN AID","CITIZEN AID","4500 BLK HARRISON","",""
"02/20/2019","16:53","219CR0004197","SUSPICIOUS ACTIVITY","SUSPICIOUS ACTIVITY","400 BLK N MAIN","",""
"02/20/2019","17:06","219CR0004198","FIRE - STRUCTURE","FIRE - STRUCTURE","EVANS AND HILL","",""
"02/20/2019","17:18","219CR0004199","THEFT","THEFT, SHOPLIFT","3901 HARRISON WALMART","",""
"02/20/2019","17:25","219CR0004200","SUSPICIOUS ACTIVITY","SUSPICIOUS ACTIVITY","ALABAMA AND PARK","",""
"02/20/2019","17:28","219CR0004201","DISTURBANCE","DISTURBANCE","21 BENNETT","",""
"02/20/2019","17:34","219CR0004202","FIRE - OTHER","FIRE - OTHER","PORPHYRY AND DAKOTA","",""
"02/20/2019","17:47","219CR0004203","CIVIL PAPER SERVICE","CIVIL PAPER SERVICE","155 W QUARTZ","",""
"02/20/2019","17:51","219CR0004204","ALARM - BURGLARY","ALARM - BURGLARY","************","",""
"02/20/2019","17:58","219CR0004206","MEDICAL - EMERGENCY","MEDICAL - EMERGENCY","62 YELLOW ROSE LANE","",""
"02/20/2019","17:59","219CR0004205","SUICIDE ATTEMPT/THREAT","SUICIDE ATTEMPT/THREAT","************","",""
"02/20/2019","18:03","219CR0004207","SUSPICIOUS ACTIVITY","SUSPICIOUS ACTIVITY","MOTORVIEW RD // WYNNE","",""
"02/20/2019","18:05","219CR0004208","DISTURBANCE","DISTURBANCE","21 BENNETT","",""
"02/20/2019","18:17","219CR0004209","DETENTION BUSINESS","DETENTION BUSINESS","************","",""
"02/20/2019","18:31","219CR0004210","DISTURBANCE","DISTURBANCE","207 BAVARIA","",""
"02/20/2019","18:39","219CR0004211","DISTURBANCE-NOISE","DISTURBANCE-NOISE","1203 SILVER BOW HOMES","",""
"02/20/2019","18:56","219CR0004212","PARKING COMPLAINT","PARKING COMPLAINT","2800 BLK PINE","",""
"02/20/2019","19:05","219CR0004213","ACCIDENT-MHP","ACCIDENT-MHP","I90 MM 231 EB","",""
"02/20/2019","19:10","219CR0004214","ACCIDENT","ACCIDENT","1000 GRIZZLEY TRAIL","",""
"02/20/2019","19:34","219CR0004215","THEFT","THEFT","3937 HARRISON AV","",""
"02/20/2019","19:35","219CR0004216","VANDALISM/CRIMINAL MISCHIEF","THEFT FROM MOTOR VEHICLE","1300 W PARK ST","",""
"02/20/2019","19:41","219CR0004217","PARKING COMPLAINT","PARKING COMPLAINT","2038 WALNUT","",""
"02/20/2019","19:44","219CR0004218","ASSIST OTHER AGENCY","ASSIST OTHER AGENCY","90 MM 231 EBND","",""
"02/20/2019","20:01","219CR0004219","STOLEN VEHICLE","STOLEN VEHICLE","1350 PHYLLIS LANE","",""
"02/20/2019","20:37","219CR0004220","FIRE - OTHER","FIRE - OTHER","1000 BOSSARD RD","",""
"02/20/2019","20:55","219CR0004221","SUSPICIOUS ACTIVITY","SUSPICIOUS ACTIVITY","GALENA AND MAIN","",""
"02/20/2019","21:17","219CR0004222","JUVENILE MISC","JUVENILE MISC","************","",""
"02/20/2019","21:57","219CR0004223","T/S","T/S","HARRISON AVE AND MARCIA","",""
"02/20/2019","22:12","219CR0004224","PROWLER","PROWLER","1604 ELM ST","",""
"02/20/2019","22:31","219CR0004225","SUSPICIOUS ACTIVITY","SUSPICIOUS ACTIVITY","2100 BLK PRINCETON","",""
"02/20/2019","22:38","219CR0004226","DISTURBANCE","DISTURBANCE","531 S CRYSTAL ST","",""
"02/20/2019","22:44","219CR0004227","DISTURBANCE","DISTURBANCE","205 W GRANITE APT 401","",""
"02/20/2019","22:53","219CR0004228","DISTURBANCE","PFMA - REASONABLE APPREHENSION","521 R W GALENA","ARREST(s) MADE",""
"02/20/2019","23:02","219CR0004229","WELFARE CHECK","PFMA - MINOR INJ/PHYSICAL CONT","1736 LONGFELLOW #1","",""
"02/20/2019","23:03","219CR0004230","T/S","POSSESSION OF DANGEROUS DRUGS","GARDEN AND SECOND","ARREST(s) MADE",""
"02/20/2019","23:59","219CR0004232","ASSIST OTHER AGENCY","ASSIST OTHER AGENCY","225 N ALASKA ST","",""
"02/20/2019","23:59","219CR0004233","CHILD ABUSE","CHILD ABUSE","************","",""
"02/21/2019","00:54","219CR0004234","ASSAULT","ASSAULT","************","",""
"02/21/2019","02:48","219CR0004235","SUSPICIOUS ACTIVITY","SUSPICIOUS ACTIVITY","2107 CORNELL DAYS INN","",""
"02/21/2019","02:55","219CR0004236","MEDICAL - EMERGENCY","MEDICAL - EMERGENCY","25 E GRANITE APT 310","",""
"02/21/2019","03:00","219CR0004237","T/S","HABITUAL OFFENDER OPER. VEH","3220 HARRISON FIRST CITIZENS B","ARREST(s) MADE",""
"02/21/2019","04:07","219CR0004238","SUSPICIOUS ACTIVITY","SUSPICIOUS ACTIVITY","431 N WYOMING","",""
"02/21/2019","04:22","219CR0004239","DISTURBANCE","CRIMINAL MISCHIEF","220 N WYOMING ST #224","ARREST(s) MADE",""
"02/21/2019","05:39","219CR0004240","T/S","T/S @ CONTINENTAL AND OLYMPIC WY","CONTINENTAL AND OLYMPIC WY","",""
 

BSB police report ending February 20, 2019

"02/19/2019","00:00","219CR0004062","T/S","NO LIABILITY INSURANCE IN EFF.","FRONT AND NEVADA","",""
"02/19/2019","00:23","219CR0004063","T/S","T/S @ 1100 BLK W SECOND ST","1100 BLK W SECOND ST","",""
"02/19/2019","00:31","219CR0004064","STOLEN VEHICLE","MOTOR VEHICLE THEFT","2201 SILVER BOW BLVD","",""
"02/19/2019","00:35","219CR0004065","BUSINESS CHECK","BUSINESS CHECK","1370 HARRISON","",""
"02/19/2019","01:06","219CR0004066","T/S","T/S","2100 BLK HARRISON AV","",""
"02/19/2019","01:36","219CR0004067","DISTURBANCE-NOISE","DISTURBANCE-NOISE","208 SILVERBOW HOMES","",""
"02/19/2019","01:54","219CR0004068","WANTED PERSON","POSSESS DRUG PARAPHERNALIA","2825 FARRAGUT","ARREST(s) MADE",""
"02/19/2019","02:08","219CR0004069","T/S","NO LIABILITY INSURANCE IN EFF.","HOWARD AND AMHERST","",""
"02/19/2019","02:12","219CR0004070","MEDICAL - EMERGENCY","MEDICAL - EMERGENCY","1234 W SILVER","",""
"02/19/2019","02:13","219CR0004071","UNKNOWN PROBLEM","UNKNOWN PROBLEM","1736 LONGFELLOW #1","",""
"02/19/2019","02:17","219CR0004072","DISTURBANCE","DISTURBANCE","1953 WHITMAN","",""
"02/19/2019","04:56","219CR0004073","SUSPICIOUS ACTIVITY","SUSPICIOUS ACTIVITY","BROWNS GULCH // ORO FINO","",""
"02/19/2019","06:16","219CR0004074","SUSPICIOUS ACTIVITY","SUSPICIOUS ACTIVITY","509 W WOOLMAN","",""
"02/19/2019","07:21","219CR0004075","ALARM - BURGLARY","ALARM - BURGLARY","************","",""
"02/19/2019","07:44","219CR0004076","MEDICAL - EMERGENCY","MEDICAL - EMERGENCY","1745 GEORGE","",""
"02/19/2019","07:52","219CR0004077","ACCIDENT","CARELESS DRIVING","FRONT AND MAIN","",""
"02/19/2019","08:16","219CR0004078","CIVIL PAPER SERVICE","CIVIL PAPER SERVICE","2501 PARROTT ST","",""
"02/19/2019","08:16","219CR0004079","ALARM - FIRE","ALARM - FIRE","206 W GRANITE","",""
"02/19/2019","08:30","219CR0004080","CIVIL PAPER SERVICE","CIVIL PAPER SERVICE","2415 WALNUT","",""
"02/19/2019","08:31","219CR0004081","SUSPICIOUS ACTIVITY","SUSPICIOUS ACTIVITY","2415 S MONTANA ST","",""
"02/19/2019","08:35","219CR0004082","CIVIL PAPER SERVICE","CIVIL PAPER SERVICE","1231 E FIRST","",""
"02/19/2019","08:44","219CR0004083","STOLEN VEHICLE","STOLEN VEHICLE","FRONT ST AND KAW AVE","",""
"02/19/2019","08:50","219CR0004084","STOLEN VEHICLE","MOTOR VEHICLE THEFT","1225 W BROADWAY #105","",""
"02/19/2019","09:03","219CR0004085","ACCIDENT","ACCIDENT","HARRISON AND HOLMES","",""
"02/19/2019","09:29","219CR0004086","VANDALISM/CRIMINAL MISCHIEF","CRIMINAL MISCHIEF","1960 OREGON AVE","",""
"02/19/2019","09:40","219CR0004087","THEFT","THEFT","400 S CLARK","",""
"02/19/2019","09:54","219CR0004089","MEDICAL - EMERGENCY","MEDICAL - EMERGENCY","1527 WHITMAN AVE","",""
"02/19/2019","10:00","219CR0004090","CITIZEN AID","CITIZEN AID","1117 CALIFORNIA","",""
"02/19/2019","10:05","219CR0004091","DISTURBANCE","DISTURBANCE","501 S DAKOTA","",""
"02/19/2019","10:13","219CR0004092","SUSPICIOUS ACTIVITY","SUSPICIOUS ACTIVITY","1201 CENTENNIAL RANCHLAND","",""
"02/19/2019","10:19","219CR0004093","ACCIDENT-MHP","ACCIDENT-MHP","MONTANA ST EXIT WB ON RAMP","",""
"02/19/2019","10:42","219CR0004095","DRUGS","POSSESSION OF DANGEROUS DRUGS","2509 EDWARDS","ARREST(s) MADE",""
"02/19/2019","10:48","219CR0004096","ALARM - BURGLARY","ALARM - BURGLARY","************","",""
"02/19/2019","11:09","219CR0004097","MEDICAL - EMERGENCY","MEDICAL - EMERGENCY","1924 ELM","",""
"02/19/2019","11:16","219CR0004098","STOLEN VEHICLE","MOTOR VEHICLE THEFT","534 W GALENA","",""
"02/19/2019","11:25","219CR0004099","FRAUD","FRAUD","1625 N MAIN","",""
"02/19/2019","11:26","219CR0004100","VANDALISM/CRIMINAL MISCHIEF","VANDALISM/CRIMINAL MISCHIEF","531 S MONTANA","",""
"02/19/2019","11:34","219CR0004101","T/S","T/S","MONTANA AND LASALLE","",""
"02/19/2019","11:52","219CR0004102","ALL OTHER","ALL OTHER","22 W PARK","",""
"02/19/2019","11:56","219CR0004103","HARASSMENT","HARASSMENT","1812 WILSON","",""
"02/19/2019","12:45","219CR0004105","T/S","T/S","GRIZZLY TRAIL AT THE TRESSTLE","",""
"02/19/2019","12:50","219CR0004106","BUSINESS CHECK","BUSINESS CHECK","58 W PARK","",""
"02/19/2019","13:11","219CR0004107","SUSPICIOUS ACTIVITY","SUSPICIOUS ACTIVITY","CONTINENTAL DR AND MT 2","",""
"02/19/2019","13:18","219CR0004108","ACCIDENT","ACCIDENT","800 BLK S MONTANA","",""
"02/19/2019","13:21","219CR0004109","ACCIDENT","ACCIDENT","ELECTRIC ST AND WESTERN BLVD","",""
"02/19/2019","13:30","219CR0004110","THEFT","THEFT","540 S MAIN/INTERSTATE BODY SHP","",""
"02/19/2019","13:42","219CR0004111","THEFT","BURGLARY, NON-RESIDENCE","1110 HAYES","",""
"02/19/2019","13:43","219CR0004112","SUSPICIOUS ACTIVITY","SUSPICIOUS ACTIVITY","1320 GERMAN GULCH RD","",""
"02/19/2019","14:02","219CR0004113","FRAUD","FRAUD","3106 WHARTON","",""
"02/19/2019","14:02","219CR0004114","FRAUD","FRAUD","","",""
"02/19/2019","14:16","219CR0004115","DISTURBANCE","DISTURBANCE","DAKOTA AND GOLD","",""
"02/19/2019","14:21","219CR0004116","ACCIDENT","ACCIDENT","400 E PARK","",""
"02/19/2019","14:26","219CR0004117","THEFT","THEFT","","",""
"02/19/2019","14:44","219CR0004118","ACCIDENT","IMPROP TURN/POSITION","1040 S MONTANA ST","",""
"02/19/2019","14:47","219CR0004119","DISTURBANCE","DISTURBANCE","1812 WILSON","",""
"02/19/2019","15:21","219CR0004120","STOLEN VEHICLE","STOLEN VEHICLE","1325 E FARRELL","",""
"02/19/2019","15:31","219CR0004121","MEDICAL - EMERGENCY","MEDICAL - EMERGENCY","1515 OREGON APT 208","",""
"02/19/2019","15:37","219CR0004122","T/S","T/S @ ARIZONA AND SECOND","ARIZONA AND SECOND","",""
"02/19/2019","15:42","219CR0004123","FIRE - OTHER","FIRE - OTHER","400 W OXFORD ST","",""
"02/19/2019","15:44","219CR0004124","T/S","T/S @ 32 E GRANITE ST","32 E GRANITE ST","",""
"02/19/2019","16:02","219CR0004125","SUSPICIOUS ACTIVITY","SUSPICIOUS ACTIVITY","4655 HARRISON AVE","",""
"02/19/2019","16:11","219CR0004126","DRUGS","DRUGS","************","",""
"02/19/2019","16:25","219CR0004127","FRAUD","FRAUD","794 WHISPER RIDGE","",""
"02/19/2019","16:33","219CR0004128","MEDICAL - EMERGENCY","MEDICAL - EMERGENCY","2915 ELIZABETH WARREN AVE","",""
"02/19/2019","17:06","219CR0004129","DISTURBANCE","DISTURBANCE","2611 SILVERBOW BLVD","",""
"02/19/2019","17:25","219CR0004130","ALL OTHER","ALL OTHER","500 BLK JAMES ST","",""
"02/19/2019","17:31","219CR0004131","STOLEN VEHICLE","STOLEN VEHICLE","500 BLK CALEDONIA","",""
"02/19/2019","17:43","219CR0004132","FRAUD","FRAUD","8100 US HIGHWAY 10","",""
"02/19/2019","17:57","219CR0004133","THEFT","BURGLARY, NON-RESIDENCE","152 TERRA VERDE DR","",""
"02/19/2019","18:40","219CR0004134","VANDALISM/CRIMINAL MISCHIEF","VANDALISM/CRIMINAL MISCHIEF","2227 HARRISON","",""
"02/19/2019","18:45","219CR0004135","DISTURBANCE","DISTURBANCE","1043 W MERCURY","",""
"02/19/2019","18:55","219CR0004136","ALL OTHER","ALL OTHER","1003 HORNET ST","",""
"02/19/2019","19:32","219CR0004137","HARASSMENT","HARASSMENT","2305 CONTINENTAL","",""
"02/19/2019","19:50","219CR0004138","UNKNOWN PROBLEM","POSSESSION OF DANGEROUS DRUGS","2714 GOODWIN ST","ARREST(s) MADE",""
"02/19/2019","20:31","219CR0004139","WELFARE CHECK","WELFARE CHECK","531 W PARK","",""
"02/19/2019","21:29","219CR0004140","INTOXICATED PERSON","INTOXICATED PERSON","3100 HARRISON","",""
"02/19/2019","21:36","219CR0004141","ALL OTHER","POSSESS ALCOHOL OR INTOXICANT","1831 PHILLIPS AVE","ARREST(s) MADE",""
"02/19/2019","21:48","219CR0004142","ALARM - FIRE","ALARM - FIRE","3701 ELIZABETH WARREN","",""
"02/19/2019","22:10","219CR0004143","WELFARE CHECK","WELFARE CHECK","803 W GRANITE ST","",""
"02/19/2019","22:23","219CR0004144","WELFARE CHECK","WELFARE CHECK","2201 SILVER BOW BLVD","",""
"02/19/2019","22:44","219CR0004145","ATL","ATL","2305 CONTINENTAL DR","",""
"02/19/2019","22:55","219CR0004146","WELFARE CHECK","WELFARE CHECK","3218 EVANS","",""
"02/19/2019","23:05","219CR0004147","MEDICAL - EMERGENCY","MEDICAL - EMERGENCY","3701 ELIZABETH WARREN","",""
"02/20/2019","00:49","219CR0004148","ALL OTHER","ALL OTHER","1000 GRIZZLY TRAIL","",""
"02/20/2019","01:23","219CR0004149","BUSINESS CHECK","BUSINESS CHECK","301 E MERCURY ST CINZ","",""
"02/20/2019","01:40","219CR0004150","ASSAULT","PFMA - MINOR INJ/PHYSICAL CONT","1831 PHILLIPS","ARREST(s) MADE",""
"02/20/2019","04:24","219CR0004151","SUSPICIOUS ACTIVITY","SUSPICIOUS ACTIVITY","CENTENNIAL AND FRONT","",""
"02/20/2019","04:50","219CR0004152","ALARM - BURGLARY","ALARM - BURGLARY","************","",""
"02/20/2019","07:14","219CR0004153","MEDICAL - EMERGENCY","MEDICAL - EMERGENCY","100 GARDENS WAY #148","",""
"02/20/2019","07:38","219CR0004154","CIVIL PAPER SERVICE","CIVIL PAPER SERVICE","3136 FLORAL BLVD","",""
 

BSB police report ending February 19, 2019

"02/18/2019","00:43","219CR0003981","WELFARE CHECK","WELFARE CHECK","614 1/2 W SILVER","",""
"02/18/2019","01:47","219CR0003982","DISTURBANCE","POSSESS DRUG PARAPHERNALIA","643 S MAIN","ARREST(s) MADE",""
"02/18/2019","02:03","219CR0003983","BUSINESS CHECK","BUSINESS CHECK","531 S MONTANA","",""
"02/18/2019","02:11","219CR0003984","MEDICAL - ASSIST","MEDICAL - ASSIST","************","",""
"02/18/2019","02:28","219CR0003985","WANTED PERSON","WANTED PERSON","************","",""
"02/18/2019","02:43","219CR0003986","BUSINESS CHECK","BUSINESS CHECK","1370 HARRISON","",""
"02/18/2019","02:48","219CR0003987","DISTURBANCE","DISTURBANCE","910 EVANS APT D2","",""
"02/18/2019","02:59","219CR0003988","ALARM - BURGLARY","ALARM - BURGLARY","************","",""
"02/18/2019","03:16","219CR0003989","T/S","T/S","1370 HARRISON","",""
"02/18/2019","06:55","219CR0003990","MEDICAL - EMERGENCY","MEDICAL - EMERGENCY","2720 PINE","",""
"02/18/2019","07:11","219CR0003991","CIVIL PAPER SERVICE","CIVIL PAPER SERVICE","62 W BROADWAY","",""
"02/18/2019","07:22","219CR0003992","CIVIL PAPER SERVICE","CIVIL PAPER SERVICE","66 W GOLD","",""
"02/18/2019","07:37","219CR0003993","CIVIL PAPER SERVICE","CIVIL PAPER SERVICE","155 W QUARTZ","",""
"02/18/2019","07:49","219CR0003994","SUSPICIOUS ACTIVITY","SUSPICIOUS ACTIVITY","PARK AND MAIN","",""
"02/18/2019","08:03","219CR0003995","CIVIL PAPER SERVICE","CIVIL PAPER SERVICE","1515 OREGON AVE #617","",""
"02/18/2019","08:14","219CR0003996","JUVENILE MISC","JUVENILE MISC","************","",""
"02/18/2019","08:37","219CR0003997","CIVIL PAPER SERVICE","CIVIL PAPER SERVICE","4810 S ARIZONA","",""
"02/18/2019","08:49","219CR0003998","CIVIL PAPER SERVICE","CIVIL PAPER SERVICE","2031 GAYLORD","",""
"02/18/2019","08:57","219CR0003999","CIVIL PAPER SERVICE","CIVIL PAPER SERVICE","1035 S ARIZONA","",""
"02/18/2019","09:09","219CR0004000","CIVIL PAPER SERVICE","CIVIL PAPER SERVICE","843 PLACER ST","",""
"02/18/2019","09:18","219CR0004001","CIVIL PAPER SERVICE","CIVIL PAPER SERVICE","1211 W PORPHYRY ST","",""
"02/18/2019","09:26","219CR0004002","CIVIL PAPER SERVICE","CIVIL PAPER SERVICE","227 S WASHINGTON","",""
"02/18/2019","09:29","219CR0004003","CIVIL PAPER SERVICE","CIVIL PAPER SERVICE","1230 RACCOON WAY","",""
"02/18/2019","09:37","219CR0004004","CIVIL PAPER SERVICE","CIVIL PAPER SERVICE","512 W GRANITE","",""
"02/18/2019","09:42","219CR0004005","CIVIL PAPER SERVICE","CIVIL PAPER SERVICE","5100 S WARREN #59","",""
"02/18/2019","09:44","219CR0004006","ALARM - BURGLARY","ALARM - BURGLARY","************","",""
"02/18/2019","09:54","219CR0004007","CIVIL PAPER SERVICE","CIVIL PAPER SERVICE","935 EMPIRE","",""
"02/18/2019","10:14","219CR0004008","STOLEN VEHICLE","THEFT, ALL OTHERS","5200 HARRISON AVE","",""
"02/18/2019","10:46","219CR0004009","DETENTION BUSINESS","DETENTION BUSINESS","************","",""
"02/18/2019","11:01","219CR0004010","ACCIDENT","ACCIDENT","144 COTTAGE LOOP","",""
"02/18/2019","11:20","219CR0004011","LOST OR STOLEN PROPERTY","LOST OR STOLEN PROPERTY","17 WHEATLAND LANE","",""
"02/18/2019","11:28","219CR0004012","ACCIDENT","ACCIDENT","HARRISON AND HOLMES","",""
"02/18/2019","12:18","219CR0004014","T/S","T/S","ST ANN AND CONTINENTAL","",""
"02/18/2019","12:38","219CR0004015","CITIZEN AID","CITIZEN AID","1706 HOBSON ST","",""
"02/18/2019","12:42","219CR0004016","FOUND PROPERTY","FOUND PROPERTY","************","",""
"02/18/2019","12:52","219CR0004017","T/S","T/S","GRANITE AND WYOMING","",""
"02/18/2019","12:57","219CR0004019","MEDICAL - EMERGENCY","MEDICAL - EMERGENCY","","",""
"02/18/2019","12:57","219CR0004018","MEDICAL - EMERGENCY","MEDICAL - EMERGENCY","5050 HARRISON AVE","",""
"02/18/2019","13:11","219CR0004020","CITIZEN AID","CITIZEN AID","120 CEDAR LAKE CT","",""
"02/18/2019","13:17","219CR0004021","CITIZEN AID","CITIZEN AID","207 SILVER BOW HOMES","",""
"02/18/2019","13:30","219CR0004022","FRAUD","THEFT OF IDENTITY","2041 WHITEMAN","",""
"02/18/2019","13:36","219CR0004023","T/S","T/S","CALIFORNIA AND MAJORS","",""
"02/18/2019","13:42","219CR0004024","T/S","T/S","COBBAN AND HARRISON","",""
"02/18/2019","13:46","219CR0004025","RESTRAINING ORDER VIOLATION","VIOLATION OF PROTECTION ORDER","623 W IRON","",""
"02/18/2019","14:07","219CR0004026","ACCIDENT","ACCIDENT","2900 BLK HARRISON","",""
"02/18/2019","14:33","219CR0004027","SUSPICIOUS ACTIVITY","SUSPICIOUS ACTIVITY","205 W GRANITE","",""
"02/18/2019","14:34","219CR0004028","ALARM - MEDICAL","ALARM - MEDICAL","************","",""
"02/18/2019","14:39","219CR0004029","T/S","T/S @ MONTANA ST AND ALUMINUM ST","MONTANA ST AND ALUMINUM ST","",""
"02/18/2019","14:50","219CR0004030","SNOW REMOVAL COMPLAINT","SNOW REMOVAL COMPLAINT","1716 THORNTON","",""
"02/18/2019","14:58","219CR0004031","ALARM - BURGLARY","ALARM - BURGLARY","************","",""
"02/18/2019","15:02","219CR0004032","ACCIDENT","ACCIDENT","PORPHYRY ST AND DAKOTA ST","",""
"02/18/2019","15:07","219CR0004033","DISTURBANCE","PFMA - REASONABLE APPREHENSION","1316 KAW","ARREST(s) MADE",""
"02/18/2019","15:15","219CR0004034","INTOXICATED PERSON","DUI - (REFUSAL)","1611 GLADSTONE","ARREST(s) MADE",""
"02/18/2019","15:16","219CR0004035","ACCIDENT","ACCIDENT","GEORGE AND MONTANA","",""
"02/18/2019","15:43","219CR0004036","WANTED PERSON","WANTED PERSON","************","",""
"02/18/2019","16:20","219CR0004037","ALARM - BURGLARY","ALARM - BURGLARY","************","",""
"02/18/2019","16:36","219CR0004038","ABANDONED VEHICLE","ABANDONED VEHICLE","CLARK ST AND SILVER ST","",""
"02/18/2019","16:40","219CR0004040","VANDALISM/CRIMINAL MISCHIEF","CRIMINAL MISCHIEF","106 N MAIN ST","",""
"02/18/2019","16:40","219CR0004039","FIRE - OTHER","FIRE - OTHER","2900 BLK ARGYLE ST","",""
"02/18/2019","17:21","219CR0004041","ALARM - FIRE","ALARM - FIRE","4055 EAST RIDGE ROAD","",""
"02/18/2019","17:46","219CR0004042","BUSINESS CHECK","BUSINESS CHECK","3136 BUSCH AVE","",""
"02/18/2019","18:00","219CR0004043","ALL OTHER","ALL OTHER","115 1/2 W QUARTZ","",""
"02/18/2019","18:20","219CR0004044","T/S","NO LIABILITY INSURANCE IN EFF.","3300 HARRISON AV","",""
"02/18/2019","18:47","219CR0004045","DISTURBANCE","DISTURBANCE","521 W PARK ST","",""
"02/18/2019","19:01","219CR0004046","ATL","ATL","BUTTE AREA","",""
"02/18/2019","19:04","219CR0004047","DISTURBANCE","DISTURBANCE","745 S MAIN","",""
"02/18/2019","19:18","219CR0004048","WELFARE CHECK","WELFARE CHECK","531 W PARK APT B","",""
"02/18/2019","19:35","219CR0004049","JUVENILE MISC","JUVENILE MISC","************","",""
"02/18/2019","19:47","219CR0004050","SUSPICIOUS ACTIVITY","SUSPICIOUS ACTIVITY","BEHIND MONTANA TECH","",""
"02/18/2019","20:02","219CR0004051","STOLEN VEHICLE","MOTOR VEHICLE THEFT","1042 W BROADWAY APT A","",""
"02/18/2019","20:11","219CR0004052","DISTURBANCE","DISTURBANCE","715 13TH STREET","",""
"02/18/2019","20:17","219CR0004053","TRAFFIC HAZARD","TRAFFIC HAZARD","621 S IDAHO","",""
"02/18/2019","20:51","219CR0004054","MEDICAL - EMERGENCY","MEDICAL - EMERGENCY","50 W BROADWAY #603","",""
"02/18/2019","20:56","219CR0004055","SUSPICIOUS ACTIVITY","SUSPICIOUS ACTIVITY","10 BLK BENNETT","",""
"02/18/2019","21:42","219CR0004056","CITIZEN AID","CITIZEN AID","225 N ALASKA","",""
"02/18/2019","21:57","219CR0004057","SUSPICIOUS ACTIVITY","POSSESSION OF DANGEROUS DRUGS","AMHERST ST AND HARRISON AVE","ARREST(s) MADE",""
"02/18/2019","22:44","219CR0004058","ATL","ATL","2711 HARRISON AVE","",""
"02/18/2019","23:25","219CR0004059","SEXUAL ASSAULT","SEXUAL ASSAULT","************","",""
"02/18/2019","23:48","219CR0004060","SUSPICIOUS ACTIVITY","SUSPICIOUS ACTIVITY","1100 BLK W QUARTZ","",""
"02/18/2019","23:53","219CR0004061","ALARM - BURGLARY","ALARM - BURGLARY","************","",""
"02/19/2019","00:00","219CR0004062","T/S","NO LIABILITY INSURANCE IN EFF.","FRONT AND NEVADA","",""
"02/19/2019","00:23","219CR0004063","T/S","T/S @ 1100 BLK W SECOND ST","1100 BLK W SECOND ST","",""
"02/19/2019","00:31","219CR0004064","STOLEN VEHICLE","MOTOR VEHICLE THEFT","2201 SILVER BOW BLVD","",""
"02/19/2019","00:35","219CR0004065","BUSINESS CHECK","BUSINESS CHECK","1370 HARRISON","",""
"02/19/2019","01:06","219CR0004066","T/S","T/S","2100 BLK HARRISON AV","",""
"02/19/2019","01:36","219CR0004067","DISTURBANCE-NOISE","DISTURBANCE-NOISE","208 SILVERBOW HOMES","",""
"02/19/2019","01:54","219CR0004068","WANTED PERSON","POSSESS DRUG PARAPHERNALIA","2825 FARRAGUT","ARREST(s) MADE",""
"02/19/2019","02:08","219CR0004069","T/S","NO LIABILITY INSURANCE IN EFF.","HOWARD AND AMHERST","",""
"02/19/2019","02:12","219CR0004070","MEDICAL - EMERGENCY","MEDICAL - EMERGENCY","1234 W SILVER","",""
"02/19/2019","02:13","219CR0004071","UNKNOWN PROBLEM","UNKNOWN PROBLEM","1736 LONGFELLOW #1","",""
"02/19/2019","02:17","219CR0004072","DISTURBANCE","DISTURBANCE","1953 WHITMAN","",""
"02/19/2019","04:56","219CR0004073","SUSPICIOUS ACTIVITY","SUSPICIOUS ACTIVITY","BROWNS GULCH // ORO FINO","",""
"02/19/2019","06:16","219CR0004074","SUSPICIOUS ACTIVITY","SUSPICIOUS ACTIVITY","509 W WOOLMAN","",""
 

BSB police report ending February 18, 2019

BSB LAW ENFORCEMENT DEPARTMENT

DAILY MEDIA RELEASE FOR - 02/15/2019 TO 02/18/2019

The Daily Media Release does not contain Traffic Stop CR#'s, which is the reason for gaps in the number sequence.

Date-Time CR# Incident Location

 

02/15/2019-00:05 219CR0003763 SUSPICIOUS ACTIVITY 1300 BLK GRIZZLY TRAIL

BSB1 (NO OFFENSES)

02/15/2019-01:11 219CR0003765 BUSINESS CHECK 531 S MONTANA

BSB1 (NO OFFENSES)

02/15/2019-01:12 219CR0003766 MEDICAL - EMERGENCY 18 N CLARK

(NO OFFENSES)

02/15/2019-01:52 219CR0003767 ASSIST OTHER AGENCY I90 EB MM236

(NO OFFENSES)

02/15/2019-02:07 219CR0003768 CIVIL PAPER SERVICE 155 W QUARTZ

BSB1 (NO OFFENSES)

02/15/2019-02:08 219CR0003769 ASSIST OTHER AGENCY I90 MM 215 WB

BSB1 (NO OFFENSES)

02/15/2019-02:55 219CR0003771 T/S MONTANA AND FRONT ST

BSB1 (NO LIABILITY INSURANCE IN EFF.)

02/15/2019-03:09 219CR0003772 DISTURBANCE 846 E FIRST

BSB1 (NO OFFENSES)

02/15/2019-03:25 219CR0003773 PROWLER 323 S MONTANA #6

BSB1 (NO OFFENSES)

02/15/2019-04:16 219CR0003774 MEDICAL - EMERGENCY 1819 FLORIDA

BSB1 (NO OFFENSES)

02/15/2019-04:47 219CR0003775 ACCIDENT 16 W GALENA

BSB1 (NO OFFENSES)

02/15/2019-05:26 219CR0003776 ATL 1316 FARRELL

BSB1 (NO OFFENSES)

02/15/2019-06:35 219CR0003777 DISTURBANCE 531 S CRYSTAL

ARREST(s) MADE BSB1 (PFMA STRANGULATION)

02/15/2019-06:37 219CR0003778 ALARM - BURGLARY ************

BSB1 (NO OFFENSES)

02/15/2019-07:30 219CR0003779 UNWANTED PERSON ************

BSB1 (NO OFFENSES)

02/15/2019-07:46 219CR0003780 TRAFFIC 1ST AND MAIN

BSB1 (NO OFFENSES)

02/15/2019-07:56 219CR0003781 ACCIDENT - INJURY I15 MM 113 NB

(NO OFFENSES)

02/15/2019-08:02 219CR0003782 CITIZEN AID 916 LEWISHON ST

BSB1 (PFMA - MINOR INJ/PHYSICAL CONT)

02/15/2019-08:05 219CR0003783 CIVIL PAPER SERVICE 4810 S ARIZONA ST

BSB1 (NO OFFENSES)

02/15/2019-08:08 219CR0003784 ACCIDENT-MHP I15 MM 115 NB

(NO OFFENSES)

02/15/2019-08:12 219CR0003785 ACCIDENT MERCURY AND WYOMING

BSB1 (NO OFFENSES)

02/15/2019-08:40 219CR0003787 CIVIL PAPER SERVICE 935 EMPIRE

BSB1 (NO OFFENSES)

02/15/2019-08:50 219CR0003788 ASSIST OTHER AGENCY 225 N ALASKA

BSB3 (NO OFFENSES)

02/15/2019-08:59 219CR0003789 DISTURBANCE 3000 PRINCETON

BSB1 (NO OFFENSES)

02/15/2019-09:36 219CR0003790 CIVIL PAPER SERVICE 2740 LOCUST ST

BSB1 (NO OFFENSES)

02/15/2019-09:46 219CR0003791 CIVIL PAPER SERVICE 3060 JOSEPHINE

BSB1 (NO OFFENSES)

02/15/2019-10:03 219CR0003792 FRAUD 1760 HARRISON AVE

BSB1 (FORGERY/COUNTERFEIT)

02/15/2019-10:23 219CR0003793 WANTED PERSON ************

BSB1 (NO OFFENSES)

02/15/2019-10:34 219CR0003794 ASSIST OTHER AGENCY 910 EVANS 1F

ARREST(s) MADE BSB1 (POSSESS DRUG PARAPHERNALIA)

02/15/2019-10:54 219CR0003795 ISSUING BAD CHECKS 3939 HARRISON MURDOCHS

BSB1 (FORGERY/COUNTERFEIT)

02/15/2019-11:17 219CR0003796 CIVIL STANDBY 916 LEWISHON

BSB1 (NO OFFENSES)

02/15/2019-11:22 219CR0003797 MEDICAL - EMERGENCY 314 S WASHINGTON

(NO OFFENSES)

02/15/2019-11:40 219CR0003798 FIRE - OTHER 600 BLK S JACKSON E ALLEY

(NO OFFENSES)

02/15/2019-12:12 219CR0003801 WELFARE CHECK 118 RAMPART DR

BSB1 (NO OFFENSES)

02/15/2019-12:24 219CR0003802 MEDICAL - EMERGENCY 1258 FARRELL

BSB1 (NO OFFENSES)

02/15/2019-12:40 219CR0003803 ASSAULT ************

BSB1 (NO OFFENSES)

02/15/2019-13:04 219CR0003804 ALARM - BURGLARY ************

BSB1 (NO OFFENSES)

02/15/2019-13:13 219CR0003805 JUVENILE MISC ************

BSB1 (NO OFFENSES)

02/15/2019-13:17 219CR0003806 ACCIDENT MAIN AND MERCURY

BSB1 (FAILURE TO WEAR SEATBELT)

02/15/2019-13:30 219CR0003807 ASSIST OTHER AGENCY 205 W GRANITE #403

ARREST(s) MADE BSB1 (POSSESS DRUG PARAPHERNALIA)

02/15/2019-13:34 219CR0003808 THEFT 2600 GRAND EAST MIDDLE SCHOOL

BSB1 (THEFT FROM MOTOR VEHICLE)

02/15/2019-13:47 219CR0003809 ISSUING BAD CHECKS 436 S MAIN ST #500

BSB1 (NO OFFENSES)

02/15/2019-14:01 219CR0003811 HIT AND RUN 1400 BLK W GARANITE

BSB1 (NO OFFENSES)

02/15/2019-14:10 219CR0003813 ACCIDENT ELIZ WARREN AND BURNING TREE

BSB1 (CARELESS DRIVING)

02/15/2019-14:52 219CR0003815 SUSPICIOUS ACTIVITY ELIZ WARREN AND WHITEWAY

BSB1 (NO OFFENSES)

02/15/2019-15:11 219CR0003816 INFORMATION ONLY 3620 1/2 SHERIDAN AVE

BSB1 (NO OFFENSES)

02/15/2019-15:25 219CR0003817 T/S KAW AND GEORGE

BSB1 (SPEEDING)

02/15/2019-15:49 219CR0003819 RESTRAINING ORDER VIOLATION ************

BSB1 (NO OFFENSES)

02/15/2019-16:13 219CR0003820 T/S OREGON AVE AND B ST

BSB1 (SPEEDING)

02/15/2019-16:26 219CR0003821 CITIZEN AID 2850 KOSSUTH

(NO OFFENSES)

02/15/2019-16:27 219CR0003822 ACCIDENT ELIZ WARREN AND HARRISON

BSB1 (CARELESS DRIVING)

02/15/2019-17:01 219CR0003824 ANIMAL COMPLAINT-BITE 910 EVANS #G5

BSB1 (NO OFFENSES)

02/15/2019-17:16 219CR0003825 MEDICAL - EMERGENCY I15 MM 122 NB

(NO OFFENSES)

02/15/2019-17:22 219CR0003826 ALARM - BURGLARY ************

BSB1 (NO OFFENSES)

02/15/2019-17:40 219CR0003828 SUSPICIOUS ACTIVITY 1400 BLK W GRANITE

BSB1 (NO OFFENSES)

02/15/2019-17:45 219CR0003829 RESTRAINING ORDER VIOLATION 623 W IRON

BSB1 (VIOLATION OF PROTECTION ORDER)

02/15/2019-17:48 219CR0003830 CIVIL STANDBY 332 GRANITE MTN RD

BSB1 (NO OFFENSES)

02/15/2019-18:07 219CR0003831 WELFARE CHECK 823 W PARK

BSB1 (NO OFFENSES)

02/15/2019-18:46 219CR0003832 PRIVACY IN COMMUNICATIONS 1347 KAW

ARREST(s) MADE BSB1 (PRIVACY IN COMMUNICATION)

02/15/2019-19:06 219CR0003833 THEFT 3901 HARRISON AVE

ARREST(s) MADE BSB1 (POSSESSION OF DANGEROUS DRUGS)

02/15/2019-19:10 219CR0003834 SUSPICIOUS ACTIVITY 1300 BLOCK W PARK ST

BSB1 (NO OFFENSES)

02/15/2019-19:23 219CR0003835 SUSPICIOUS ACTIVITY 200 BLK N WYOMING

BSB1 (NO OFFENSES)

02/15/2019-19:58 219CR0003837 HIT AND RUN 207 W PARK

BSB1 (NO OFFENSES)

02/15/2019-20:16 219CR0003838 ASSIST OTHER AGENCY BUTTE HIGH CAREER CENTER

BSB1 (NO OFFENSES)

02/15/2019-20:46 219CR0003840 MEDICAL - EMERGENCY 1247 E FIRST

(NO OFFENSES)

02/15/2019-21:01 219CR0003841 HIT AND RUN 602 S CRYSTAL

BSB1 (NO OFFENSES)

02/15/2019-22:01 219CR0003842 VANDALISM/CRIMINAL MISCHIEF 550 E MERCURY MAC CENTER

BSB1 (NO OFFENSES)

02/15/2019-22:37 219CR0003843 THEFT 2711 HARRISON AVE

BSB1 (THEFT, SHOPLIFT)

02/15/2019-22:39 219CR0003845 ATL MERCURY AND MONTANA

BSB1 (NO OFFENSES)

02/15/2019-22:52 219CR0003846 BUSINESS CHECK 1915 DEWEY

BSB1 (NO OFFENSES)

02/15/2019-23:28 219CR0003847 ANIMAL COMPLAINT 1100 BLK W PORPHYRY ST

BSB1 (NO OFFENSES)

02/15/2019-23:29 219CR0003848 TRAFFIC HAZARD 83 BENNETT

BSB1 (NO OFFENSES)

02/15/2019-23:35 219CR0003850 SUSPICIOUS ACTIVITY 1405 W GRANITE ST

BSB1 (NO OFFENSES)

02/15/2019-23:50 219CR0003851 SUSPICIOUS ACTIVITY 800 BLK UTAH

ARREST(s) MADE BSB1 (AGGRAVATED DUI)

02/16/2019-00:00 219CR0003852 DISTURBANCE CAROLINA ST AND GRAND AV

ARREST(s) MADE BSB1 (AGGRAVATED DUI)

02/16/2019-00:26 219CR0003853 THEFT 2711 HARRISON AVE

BSB1 (THEFT, SHOPLIFT)

02/16/2019-00:41 219CR0003854 SUSPICIOUS ACTIVITY 500 BLK N WYOMING

BSB1 (NO OFFENSES)

02/16/2019-01:36 219CR0003855 MEDICAL - EMERGENCY 1914 S IDAHO

BSB1 (NO OFFENSES)

02/16/2019-01:58 219CR0003856 SUSPICIOUS ACTIVITY GRANITE AND ARIZONA

BSB1 (NO OFFENSES)

02/16/2019-01:59 219CR0003857 SUSPICIOUS ACTIVITY 2720 ELM ST

BSB1 (NO OFFENSES)

02/16/2019-02:28 219CR0003858 ASSIST OTHER AGENCY 51 PAUL GULCH RD

BSB1 (NO OFFENSES)

02/16/2019-02:52 219CR0003859 SUSPICIOUS ACTIVITY 2600 GRAND AVE

BSB1 (TRAFFIC HAZARD)

02/16/2019-03:23 219CR0003860 MEDICAL - EMERGENCY 2314 WALNUT

(NO OFFENSES)

02/16/2019-04:39 219CR0003861 DISTURBANCE-NOISE FIRST AND UTAH

BSB1 (NO OFFENSES)

02/16/2019-05:29 219CR0003862 MEDICAL - EMERGENCY 1914 S IDAHO

(NO OFFENSES)

02/16/2019-05:56 219CR0003863 FIRE - VEHICLE 2711 HARRISON AVE

BSB1 (NO OFFENSES)

02/16/2019-06:39 219CR0003864 ASSIST OTHER AGENCY I15 MM 110 SB

(NO OFFENSES)

02/16/2019-08:03 219CR0003865 ALARM - BURGLARY ************

BSB1 (NO OFFENSES)

02/16/2019-08:27 219CR0003866 CIVIL PAPER SERVICE 4810 S ARIZONA

BSB1 (NO OFFENSES)

02/16/2019-08:36 219CR0003867 CITIZEN AID 225 N ALASKA

BSB1 (NO OFFENSES)

02/16/2019-08:39 219CR0003868 SUSPICIOUS ACTIVITY 2339 PLACER MATTS DRIVE INN

BSB1 (NO OFFENSES)

02/16/2019-09:07 219CR0003869 CIVIL PAPER SERVICE 227 S WASHINGTON

BSB1 (NO OFFENSES)

02/16/2019-09:16 219CR0003870 CIVIL PAPER SERVICE 935 EMPIRE

BSB1 (NO OFFENSES)

02/16/2019-09:20 219CR0003871 DISTURBANCE 901 S WASHINGTON #24

BSB1 (NO OFFENSES)

02/16/2019-10:42 219CR0003872 OPEN BUILDING 630 W IRON

BSB1 (NO OFFENSES)

02/16/2019-12:19 219CR0003873 DISTURBANCE 1316 KAW

BSB1 (NO OFFENSES)

02/16/2019-12:51 219CR0003874 ANIMAL COMPLAINT JACKSON ST AND QUARTZ ST

(NO OFFENSES)

02/16/2019-13:06 219CR0003875 ALARM - BURGLARY ************

BSB1 (NO OFFENSES)

02/16/2019-13:18 219CR0003876 MEDICAL - EMERGENCY 517 E 1ST

(NO OFFENSES)

02/16/2019-13:46 219CR0003877 WELFARE CHECK 1911 THORNTON

BSB1 (NO OFFENSES)

02/16/2019-14:05 219CR0003878 MEDICAL - EMERGENCY 2850 KOSSUTH

(NO OFFENSES)

02/16/2019-14:16 219CR0003879 ACCIDENT 33 HOLLIDAY DRIVE

(NO OFFENSES)

02/16/2019-14:28 219CR0003880 MEDICAL - EMERGENCY 301 E FRONT

BSB1 (NO OFFENSES)

02/16/2019-14:41 219CR0003881 T/S ELIZABETH WARREN AND HOWARD

BSB1 (OPERATING WITHOUT CURRENT REGI)

02/16/2019-14:49 219CR0003882 SUSPICIOUS ACTIVITY 3 BEARS DRIVE

ARREST(s) MADE BSB1 (POSSESS DRUG PARAPHERNALIA)

02/16/2019-15:24 219CR0003883 T/S MARCIA AND HARRISON

BSB1 (NO LIABILITY INSURANCE IN EFF.)

02/16/2019-15:32 219CR0003884 MEDICAL - EMERGENCY 550 E MERCURY MAC CENTER

BSB1 (NO OFFENSES)

02/16/2019-15:35 219CR0003885 SUSPICIOUS ACTIVITY CHULA AND S MONTANA

BSB1 (NO OFFENSES)

02/16/2019-15:38 219CR0003886 HARASSMENT 1347 KAW AVE

BSB1 (NO OFFENSES)

02/16/2019-15:39 219CR0003887 CIVIL STANDBY 916 LEWISHON ST

BSB1 (NO OFFENSES)

02/16/2019-16:26 219CR0003889 WELFARE CHECK 4655 HARRISON AVE ROOM 271

BSB1 (NO OFFENSES)

02/16/2019-16:54 219CR0003890 WELFARE CHECK 50 W BROADWAY APT 205

BSB1 (NO OFFENSES)

02/16/2019-17:08 219CR0003891 HARASSMENT 1511 SILVER BOW HOMES

BSB1 (NO OFFENSES)

02/16/2019-17:42 219CR0003892 DISTURBANCE 4655 HARRISON AVE

BSB1 (NO OFFENSES)

02/16/2019-17:47 219CR0003893 ALL OTHER 6 E SECOND

BSB1 (NO OFFENSES)

02/16/2019-18:01 219CR0003894 FRAUD 601 S CRYSTAL

BSB1 (DECEPTIVE PRACT - CREDIT CARD)

02/16/2019-18:07 219CR0003895 THEFT 3901 HARRISON AVE

ARREST(s) MADE BSB1 (THEFT, SHOPLIFT)

02/16/2019-18:10 219CR0003896 MEDICAL - EMERGENCY 436 S MAIN #408

(NO OFFENSES)

02/16/2019-18:30 219CR0003897 DISTURBANCE 531 S MONTANA

BSB1 (NO OFFENSES)

02/16/2019-18:42 219CR0003898 INTIMIDATION 3901 HARRISON AVE

BSB1 (NO OFFENSES)

02/16/2019-19:00 219CR0003899 MEDICAL - EMERGENCY 155 W QUARTZ

BSB1 (NO OFFENSES)

02/16/2019-19:16 219CR0003901 ASSIST OTHER AGENCY I90 EB MM 219

(NO OFFENSES)

02/16/2019-19:35 219CR0003903 SUSPICIOUS ACTIVITY 2107 CORNELL DAYS INN

BSB1 (NO OFFENSES)

02/16/2019-19:53 219CR0003904 DISTURBANCE 110 CLINTON

BSB1 (NO OFFENSES)

02/16/2019-19:59 219CR0003905 ACCIDENT 319 S MONTANA

BSB1 (NO OFFENSES)

02/16/2019-20:02 219CR0003906 SUICIDE ATTEMPT/THREAT ************

BSB1 (NO OFFENSES)

02/16/2019-20:23 219CR0003907 SUSPICIOUS ACTIVITY 301 E FRONT

ARREST(s) MADE BSB1 (CRIMINAL CONTEMPT)

02/16/2019-20:47 219CR0003908 UNWANTED PERSON 3210 BUSCH

BSB1 (INTIMIDATION)

02/16/2019-20:57 219CR0003909 UNKNOWN PROBLEM 312 SILVER BOW HOMES

BSB1 (NO OFFENSES)

02/16/2019-21:02 219CR0003910 SUSPICIOUS ACTIVITY 225 N ALASKA

BSB1 (NO OFFENSES)

02/16/2019-21:13 219CR0003911 THEFT 3901 HARRISON AVE

BSB1 (THEFT, SHOPLIFT)

02/16/2019-22:14 219CR0003912 MEDICAL - EMERGENCY 155 W QUARTZ

BSB1 (NO OFFENSES)

02/16/2019-22:19 219CR0003913 SUSPICIOUS ACTIVITY 521 W SILVER

BSB1 (NO OFFENSES)

02/16/2019-22:45 219CR0003914 DISTURBANCE 3075 DEXTER

BSB1 (NO OFFENSES)

02/16/2019-23:11 219CR0003915 BUSINESS CHECK 1370 HARRISON

BSB1 (NO OFFENSES)

02/16/2019-23:19 219CR0003916 ACCIDENT 20 W BROADWAY

ARREST(s) MADE BSB1 (AGGRAVATED DUI)

02/16/2019-23:22 219CR0003917 ATL 119055 BATTLE RIDGE RD

BSB1 (NO OFFENSES)

02/17/2019-00:29 219CR0003921 MEDICAL - EMERGENCY I15 MM 133 138 SB

(NO OFFENSES)

02/17/2019-00:58 219CR0003922 SUSPICIOUS ACTIVITY 1370 HARRISON

BSB1 (NO OFFENSES)

02/17/2019-02:18 219CR0003925 DISTURBANCE-NOISE 2825 FARRAGUT APT D203

BSB1 (NO OFFENSES)

02/17/2019-02:52 219CR0003926 HARASSMENT 1000 GRIZZLEY TRAIL

BSB1 (NO OFFENSES)

02/17/2019-03:25 219CR0003927 DISTURBANCE-NOISE 319 N ALABAMA

BSB1 (NO OFFENSES)

02/17/2019-03:34 219CR0003928 ASSIST OTHER AGENCY 24 E COPPER HAYES MORRIS HSE

BSB1 (NO OFFENSES)

02/17/2019-03:38 219CR0003929 ALARM - BURGLARY ************

BSB1 (NO OFFENSES)

02/17/2019-05:57 219CR0003930 ALARM - BURGLARY ************

BSB1 (NO OFFENSES)

02/17/2019-08:49 219CR0003931 CIVIL PAPER SERVICE 108 W GOLD

BSB1 (NO OFFENSES)

02/17/2019-08:56 219CR0003932 CIVIL PAPER SERVICE 640 W BROADWAY

BSB1 (NO OFFENSES)

02/17/2019-08:58 219CR0003933 CIVIL PAPER SERVICE 25 N JACKSON

BSB3 (NO OFFENSES)

02/17/2019-09:22 219CR0003934 CIVIL PAPER SERVICE 1228 RACCOON WAY

BSB3 (NO OFFENSES)

02/17/2019-10:03 219CR0003935 MEDICAL - EMERGENCY I90 MM 231 E BND

(NO OFFENSES)

02/17/2019-10:20 219CR0003936 CIVIL PAPER SERVICE 3431 AMHERST

BSB1 (NO OFFENSES)

02/17/2019-10:43 219CR0003937 VANDALISM/CRIMINAL MISCHIEF 226 W BROADWAY

BSB1 (CRIMINAL MISCHIEF)

02/17/2019-11:40 219CR0003938 WELFARE CHECK 4027 WESTERN BLVD

BSB3 (NO OFFENSES)

02/17/2019-11:51 219CR0003939 FRAUD 2227 HARRISON AVE

BSB1 (THEFT OF SERVICES)

02/17/2019-12:23 219CR0003940 BURGLARY 3210 BUSCH

BSB1 (NO OFFENSES)

02/17/2019-12:26 219CR0003941 THEFT 3901 HARRISON AVE

BSB1 (THEFT, SHOPLIFT)

02/17/2019-13:37 219CR0003942 ALARM - BURGLARY ************

BSB1 (NO OFFENSES)

02/17/2019-14:32 219CR0003943 SUSPICIOUS ACTIVITY 881 NINE MILE RD

BSB1 (NO OFFENSES)

02/17/2019-14:44 219CR0003944 ALARM - FIRE 100 GARDENS WAY NO 112

(NO OFFENSES)

02/17/2019-14:46 219CR0003945 DISTURBANCE 1300 BLK SILVER BOW HOMES

ARREST(s) MADE BSB1 (ASSAULT, SIMPLE)

02/17/2019-14:59 219CR0003946 SUSPICIOUS ACTIVITY 400 S CLARK

BSB1 (CRIMINAL MISCHIEF)

02/17/2019-15:05 219CR0003947 VANDALISM/CRIMINAL MISCHIEF 1925 DEWEY BLVD

BSB1 (CRIMINAL TRESPASS TO VEHICLE)

02/17/2019-15:27 219CR0003949 STOLEN VEHICLE 310 SILVER BOW HOMES

BSB1 (UNAUTHORIZED USE OF MOTOR VEH)

02/17/2019-15:37 219CR0003950 SUSPICIOUS ACTIVITY 425 TWO BIT LANE

BSB1 (NO OFFENSES)

02/17/2019-15:50 219CR0003951 WELFARE CHECK 3524 GAYLORD

BSB1 (NO OFFENSES)

02/17/2019-16:53 219CR0003956 ATL HARRISON AND HOLMES

BSB1 (NO OFFENSES)

02/17/2019-17:01 219CR0003957 HIT AND RUN 1667 GRAND AVE

BSB1 (NO OFFENSES)

02/17/2019-17:07 219CR0003958 UNKNOWN PROBLEM 102 E GALENA

BSB1 (NO OFFENSES)

02/17/2019-17:43 219CR0003960 STOLEN VEHICLE 400 BLK S CLARK RM 350

BSB1 (MOTOR VEHICLE THEFT)

02/17/2019-17:56 219CR0003963 MEDICAL - EMERGENCY 2600 S MAIN

(NO OFFENSES)

02/17/2019-18:00 219CR0003964 DISTURBANCE 2031 GAYLORD

BSB1 (NO OFFENSES)

02/17/2019-18:03 219CR0003965 WELFARE CHECK 301 E FRONT

BSB1 (NO OFFENSES)

02/17/2019-18:21 219CR0003967 VANDALISM/CRIMINAL MISCHIEF 3901 HARRISON AVE

BSB1 (THEFT FROM MOTOR VEHICLE)

02/17/2019-19:21 219CR0003970 MEDICAL - EMERGENCY 326 N ALABAMA

BSB1 (NO OFFENSES)

02/17/2019-19:35 219CR0003971 WELFARE CHECK PAXSON AND CLEVELAND

BSB1 (NO OFFENSES)

02/17/2019-19:37 219CR0003972 WELFARE CHECK 1 CEDAR LAKE DRIVE

BSB1 (NO OFFENSES)

02/17/2019-20:06 219CR0003973 RESTRAINING ORDER VIOLATION ************

BSB1 (NO OFFENSES)

02/17/2019-20:22 219CR0003974 ACCIDENT EMMETT AND CALEDONIA

BSB1 (NO OFFENSES)

02/17/2019-20:28 219CR0003975 MEDICAL - EMERGENCY 507 1/2 N WYOMING ST

(NO OFFENSES)

02/17/2019-20:52 219CR0003976 WELFARE CHECK 1464 SUNRISE LN

BSB1 (NO OFFENSES)

02/17/2019-21:14 219CR0003977 MEDICAL - EMERGENCY 3701 ELIZABETH WARREN

BSB1 (NO OFFENSES)

02/17/2019-22:12 219CR0003978 DISTURBANCE 110 CLINTON

BSB1 (CRIMINAL MISCHIEF)

02/17/2019-23:06 219CR0003979 WELFARE CHECK 315 WEBSTER

BSB1 (NO OFFENSES)

02/17/2019-23:36 219CR0003980 THEFT 4655 HARRISON AVE

BSB1 (NO OFFENSES)

02/18/2019-00:43 219CR0003981 WELFARE CHECK 614 1/2 W SILVER

BSB1 (NO OFFENSES)

02/18/2019-01:47 219CR0003982 DISTURBANCE 643 S MAIN

ARREST(s) MADE BSB1 (POSSESS DRUG PARAPHERNALIA)

02/18/2019-02:03 219CR0003983 BUSINESS CHECK 531 S MONTANA

BSB1 (NO OFFENSES)

02/18/2019-02:11 219CR0003984 MEDICAL - ASSIST ************

(NO OFFENSES)

02/18/2019-02:28 219CR0003985 WANTED PERSON ************

BSB1 (NO OFFENSES)

02/18/2019-02:43 219CR0003986 BUSINESS CHECK 1370 HARRISON

BSB1 (NO OFFENSES)

02/18/2019-02:48 219CR0003987 DISTURBANCE 910 EVANS APT D2

BSB1 (NO OFFENSES)

02/18/2019-02:59 219CR0003988 ALARM - BURGLARY ************

BSB1 (NO OFFENSES)

02/18/2019-06:55 219CR0003990 MEDICAL - EMERGENCY 2720 PINE

(NO OFFENSES)

02/18/2019-07:11 219CR0003991 CIVIL PAPER SERVICE 62 W BROADWAY

BSB1 (NO OFFENSES)

02/18/2019-07:22 219CR0003992 CIVIL PAPER SERVICE 66 W GOLD

BSB1 (NO OFFENSES)

02/18/2019-07:37 219CR0003993 CIVIL PAPER SERVICE 155 W QUARTZ

BSB1 (NO OFFENSES)

02/18/2019-07:49 219CR0003994 SUSPICIOUS ACTIVITY PARK AND MAIN

BSB1 (NO OFFENSES)

02/18/2019-08:03 219CR0003995 CIVIL PAPER SERVICE 1515 OREGON AVE #617

BSB1 (NO OFFENSES)

02/18/2019-08:14 219CR0003996 JUVENILE MISC ************

BSB1 (NO OFFENSES)

BSB police report ending February 15, 2019

"02/14/2019","00:05","219CR0003681","BUSINESS CHECK","BUSINESS CHECK","2544 HARRISON LISACS TRI STOP","",""
"02/14/2019","00:30","219CR0003683","BUSINESS CHECK","BUSINESS CHECK","2000 DEWEY/DOTTYS","",""
"02/14/2019","00:32","219CR0003684","DISTURBANCE-NOISE","DISTURBANCE-NOISE","1512 SILVERBOW HOMES","",""
"02/14/2019","01:53","219CR0003685","SUSPICIOUS ACTIVITY","SUSPICIOUS ACTIVITY","431 N WYOMING","",""
"02/14/2019","01:55","219CR0003686","ASSAULT","ASSAULT","************","",""
"02/14/2019","02:09","219CR0003687","ACCIDENT-MHP","ACCIDENT-MHP","I90 MM 215 WB","",""
"02/14/2019","03:29","219CR0003688","PROWLER","PROWLER","1443 EASY ST","",""
"02/14/2019","04:05","219CR0003689","BUSINESS CHECK","BUSINESS CHECK","2544 HARRISON LISACS TRI STOP","",""
"02/14/2019","04:44","219CR0003690","SEXUAL ASSAULT","SEXUAL ASSAULT","************","",""
"02/14/2019","04:57","219CR0003691","T/S","T/S","PORPHYRY AND MONTANA ST","",""
"02/14/2019","05:14","219CR0003692","ALARM - BURGLARY","ALARM - BURGLARY","************","",""
"02/14/2019","06:24","219CR0003693","DRUGS","DRUGS","************","",""
"02/14/2019","06:29","219CR0003694","ACCIDENT-MHP","ACCIDENT-MHP","I90 MM 215 WB LANE","",""
"02/14/2019","06:59","219CR0003695","THEFT","THEFT","2205 OTTAWA","",""
"02/14/2019","07:26","219CR0003696","LED BUSINESS","LED BUSINESS","WARM SPRINGS","",""
"02/14/2019","07:48","219CR0003697","CIVIL PAPER SERVICE","CIVIL PAPER SERVICE","3250 CARTER ST","",""
"02/14/2019","08:01","219CR0003698","CIVIL PAPER SERVICE","CIVIL PAPER SERVICE","617 S JACKSON #A","",""
"02/14/2019","08:09","219CR0003699","JUVENILE MISC","JUVENILE MISC","************","",""
"02/14/2019","08:10","219CR0003700","CIVIL PAPER SERVICE","CIVIL PAPER SERVICE","3060 JOSEPHINE ST","",""
"02/14/2019","08:12","219CR0003701","MEDICAL - EMERGENCY","MEDICAL - EMERGENCY","314 S WASHINGTON","",""
"02/14/2019","08:13","219CR0003702","CIVIL PAPER SERVICE","CIVIL PAPER SERVICE","935 EMPIRE","",""
"02/14/2019","08:17","219CR0003703","CIVIL PAPER SERVICE","CIVIL PAPER SERVICE","2740 LOCUST ST","",""
"02/14/2019","08:21","219CR0003704","CIVIL PAPER SERVICE","CIVIL PAPER SERVICE","640 W BROADWAY ST","",""
"02/14/2019","08:27","219CR0003705","JUVENILE MISC","JUVENILE MISC","************","",""
"02/14/2019","08:31","219CR0003706","CIVIL PAPER SERVICE","CIVIL PAPER SERVICE","1211 W PORPHYRY ST","",""
"02/14/2019","08:38","219CR0003707","CIVIL PAPER SERVICE","CIVIL PAPER SERVICE","843 PLACER ST","",""
"02/14/2019","08:42","219CR0003708","HIT AND RUN","HIT AND RUN, UNATTENDED VEHICL","1404 S WARREN","",""
"02/14/2019","08:43","219CR0003709","WANTED PERSON","WANTED PERSON","************","",""
"02/14/2019","08:49","219CR0003710","CIVIL PAPER SERVICE","CIVIL PAPER SERVICE","25 N JACKSON","",""
"02/14/2019","08:56","219CR0003711","FOUND PROPERTY","FOUND PROPERTY","************","",""
"02/14/2019","09:14","219CR0003712","MEDICAL - EMERGENCY","MEDICAL - EMERGENCY","1315 WILSON","",""
"02/14/2019","09:19","219CR0003713","WELFARE CHECK","WELFARE CHECK","305 N WASHINGTON","",""
"02/14/2019","09:47","219CR0003714","HARASSMENT","HARASSMENT","1319 MISSOURI AVE","",""
"02/14/2019","09:54","219CR0003715","DETENTION BUSINESS","DETENTION BUSINESS","************","",""
"02/14/2019","10:20","219CR0003716","THEFT","THEFT","2600 GRAND AVE","",""
"02/14/2019","10:27","219CR0003717","ASSIST OTHER AGENCY","ASSIST OTHER AGENCY","1475 SAGE","",""
"02/14/2019","10:39","219CR0003718","VEHICLE INSPECTION","VEHICLE INSPECTION","3100 HARRISON AVE","",""
"02/14/2019","10:40","219CR0003719","T/S","T/S","WESTERN AND 4 MILE RD","",""
"02/14/2019","11:06","219CR0003720","DISTURBANCE","DISTURBANCE","2200 BLK SILVER BOW BLVD","",""
"02/14/2019","11:10","219CR0003721","ASSIST OTHER AGENCY","POSSESSION OF DANGEROUS DRUGS","1322 CASEY","ARREST(s) MADE",""
"02/14/2019","11:17","219CR0003722","CIVIL STANDBY","CIVIL STANDBY","603 SILVERBOW HOMES","",""
"02/14/2019","11:46","219CR0003723","ANIMAL COMPLAINT-BITE","ANIMAL COMPLAINT-BITE","1300 BLK HARRISON","",""
"02/14/2019","11:52","219CR0003724","HARASSMENT","HARASSMENT","2223 LOCUST","",""
"02/14/2019","12:21","219CR0003725","DETENTION BUSINESS","DETENTION BUSINESS","************","",""
"02/14/2019","13:13","219CR0003726","STOLEN VEHICLE","STOLEN VEHICLE","TOWN PUMP ROCKER CASINO","",""
"02/14/2019","13:20","219CR0003727","ACCIDENT","ACCIDENT","1000 GRIZZLY TRAIL","",""
"02/14/2019","13:50","219CR0003728","THEFT","THEFT","1957 HARRISON AVE","",""
"02/14/2019","13:58","219CR0003729","WELFARE CHECK","WELFARE CHECK","849 W QUARTZ","",""
"02/14/2019","14:01","219CR0003730","STOLEN VEHICLE","STOLEN VEHICLE","1233 GRIZZLYTRAIL","",""
"02/14/2019","14:10","219CR0003731","UNWANTED PERSON","UNWANTED PERSON","************","",""
"02/14/2019","14:21","219CR0003732","SUSPICIOUS ACTIVITY","SUSPICIOUS ACTIVITY","DEWEY BLVD AND HARRISON AVE","",""
"02/14/2019","15:02","219CR0003733","ALARM - BURGLARY","ALARM - BURGLARY","************","",""
"02/14/2019","15:20","219CR0003734","CIVIL PAPER SERVICE","CIVIL PAPER SERVICE","412 W MERCURY","",""
"02/14/2019","15:27","219CR0003735","MEDICAL - EMERGENCY","MEDICAL - EMERGENCY","643 S MAIN","",""
"02/14/2019","15:35","219CR0003736","T/S","SPEEDING","MONTANA ST AND ALUMINUM ST","",""
"02/14/2019","15:40","219CR0003737","ASSAULT","ASSAULT","************","",""
"02/14/2019","15:54","219CR0003738","VANDALISM/CRIMINAL MISCHIEF","VANDALISM/CRIMINAL MISCHIEF","1806 GRAND","",""
"02/14/2019","15:59","219CR0003739","ACCIDENT - INJURY","ACCIDENT - INJURY","HARRISON AND GILMAN","",""
"02/14/2019","16:34","219CR0003740","SUSPICIOUS ACTIVITY","SUSPICIOUS ACTIVITY","THOMAS AND GOODWIN","",""
"02/14/2019","16:38","219CR0003741","WELFARE CHECK","WELFARE CHECK","234 E MERCURY","",""
"02/14/2019","16:51","219CR0003742","PARKING COMPLAINT","PARKING COMPLAINT","2500  BLK WALNUT","",""
"02/14/2019","17:40","219CR0003744","ALARM - BURGLARY","ALARM - BURGLARY","************","",""
"02/14/2019","17:56","219CR0003745","JUVENILE MISC","JUVENILE MISC","************","",""
"02/14/2019","17:59","219CR0003746","SUSPICIOUS ACTIVITY","SUSPICIOUS ACTIVITY","1322 CASEY","",""
"02/14/2019","18:07","219CR0003747","T/S","T/S","531 S MONTANA","",""
"02/14/2019","18:13","219CR0003748","SUSPICIOUS ACTIVITY","SUSPICIOUS ACTIVITY","707 N WYOMING","",""
"02/14/2019","18:41","219CR0003749","DISTURBANCE","DISTURBANCE","916 LEWISHON","",""
"02/14/2019","18:44","219CR0003750","THEFT","THEFT","3901 HARRISON AVE","",""
"02/14/2019","21:18","219CR0003751","ANIMAL COMPLAINT","ANIMAL COMPLAINT","2500 BLK HARVARD AVE","",""
"02/14/2019","21:57","219CR0003752","ANIMAL COMPLAINT","ANIMAL COMPLAINT","2614 FLORAL BLVD","",""
"02/14/2019","22:13","219CR0003753","ASSAULT","ASSAULT WITH WEAPON","211 W WOOLMAN","",""
"02/14/2019","22:19","219CR0003754","MEDICAL - EMERGENCY","MEDICAL - EMERGENCY","305 N WASHINGTON APT A","",""
"02/14/2019","22:23","219CR0003755","RESTRAINING ORDER VIOLATION","VIOLATION OF PROTECTION ORDER","2018 ELM ST","",""
"02/14/2019","22:29","219CR0003756","ATL","ATL","3700 HARRISON","",""
"02/14/2019","22:42","219CR0003757","RESTRAINING ORDER VIOLATION","VIOLATION OF PROTECTION ORDER","332 GRANITE MTN RD","ARREST(s) MADE",""
"02/14/2019","22:57","219CR0003758","DISTURBANCE","DISTURBANCE","1916 THORNTON","",""
"02/14/2019","22:59","219CR0003759","T/S","T/S","EXCELSIOR AND 12TH","",""
"02/14/2019","23:00","219CR0003760","SUSPICIOUS ACTIVITY","SUSPICIOUS ACTIVITY","ALABAMA AND PLATINUM","",""
"02/14/2019","23:30","219CR0003761","SUSPICIOUS ACTIVITY","SUSPICIOUS ACTIVITY","2000 BLK THOMAS AVE","",""
"02/14/2019","23:42","219CR0003762","MEDICAL - EMERGENCY","MEDICAL - EMERGENCY","155 W QUARTZ","",""
"02/15/2019","00:05","219CR0003763","SUSPICIOUS ACTIVITY","SUSPICIOUS ACTIVITY","1300 BLK GRIZZLY TRAIL","",""
"02/15/2019","00:59","219CR0003764","T/S","T/S @ I90 EB ROCKER EXIT","I90 EB ROCKER EXIT","",""
"02/15/2019","01:11","219CR0003765","BUSINESS CHECK","BUSINESS CHECK","531 S MONTANA","",""
"02/15/2019","01:12","219CR0003766","MEDICAL - EMERGENCY","MEDICAL - EMERGENCY","18 N CLARK","",""
"02/15/2019","01:52","219CR0003767","ASSIST OTHER AGENCY","ASSIST OTHER AGENCY","I90 EB MM236","",""
"02/15/2019","02:07","219CR0003768","CIVIL PAPER SERVICE","CIVIL PAPER SERVICE","155 W QUARTZ","",""
"02/15/2019","02:08","219CR0003769","ASSIST OTHER AGENCY","ASSIST OTHER AGENCY","I90 MM 215 WB","",""
"02/15/2019","02:29","219CR0003770","T/S","T/S","WARREN AND LONGFELLOW","",""
"02/15/2019","02:55","219CR0003771","T/S","NO LIABILITY INSURANCE IN EFF.","MONTANA AND FRONT ST","",""
"02/15/2019","03:09","219CR0003772","DISTURBANCE","DISTURBANCE","846 E FIRST","",""
"02/15/2019","03:25","219CR0003773","PROWLER","PROWLER","323 S MONTANA #6","",""
"02/15/2019","04:16","219CR0003774","MEDICAL - EMERGENCY","MEDICAL - EMERGENCY","1819 FLORIDA","",""
"02/15/2019","04:47","219CR0003775","ACCIDENT","ACCIDENT","16 W GALENA","",""
"02/15/2019","06:35","219CR0003777","DISTURBANCE","PFMA STRANGULATION","531 S CRYSTAL","ARREST(s) MADE",""
"02/15/2019","06:37","219CR0003778","ALARM - BURGLARY","ALARM - BURGLARY","************","",""
"02/15/2019","07:46","219CR0003780","TRAFFIC","TRAFFIC","1ST AND MAIN","",""
 

Subcategories

Sunday the 24th. Affiliate Marketing.
Copyright 2012

©